KA4TEV Fort Meyers FL US current weather conditions

sailwx.info

Wind from 055 at 6 knots gusting 13

Air temperature 19.4° C
Dewpoint 15.9° C

Last reported at 2019-Mar-19 01:09 UTC.
Time now 2019-Mar-19 01:39 UTC

Location: N 26°31' W 081°57'.
View on Google Maps.

See reports from other nearby stations

  
Tides and Currents Weather Stations Pressure Air Temp Water Temp Dewpoint Dewpoint Depression Visibility Wind Speed Wind Dir Waves Ship Positions
date/time (UTC)wind fromknots sea level pressurealtimeterstation pressurevisibilityair tempwater tempwave heightnotes
2019-Mar-19 01:09 055 6 gusting 13 19.4
2019-Mar-19 01:04 040 5 gusting 13 19.4
2019-Mar-19 00:59 061 5 gusting 12 19.4
2019-Mar-19 00:54 063 6 gusting 12 20.0
2019-Mar-19 00:49 046 5 gusting 12 20.0
2019-Mar-19 00:44 037 7 gusting 12 20.0
2019-Mar-19 00:39 054 4 gusting 11 20.0
2019-Mar-19 00:34 055 6 gusting 11 20.0
2019-Mar-19 00:29 055 4 gusting 11 20.6
2019-Mar-19 00:24 055 6 gusting 13 20.6
2019-Mar-19 00:19 055 7 gusting 13 20.6
2019-Mar-19 00:14 057 5 gusting 8 20.6
2019-Mar-19 00:09 060 4 gusting 10 20.6
2019-Mar-19 00:04 055 6 gusting 10 20.6
2019-Mar-18 23:59 078 5 gusting 14 20.6
2019-Mar-18 23:54 053 6 gusting 14 20.6
2019-Mar-18 23:49 056 6 gusting 13 21.1
2019-Mar-18 23:44 078 6 gusting 13 21.1
2019-Mar-18 23:39 048 4 gusting 13 21.1
2019-Mar-18 23:34 069 4 gusting 12 21.1
2019-Mar-18 23:29 071 6 gusting 12 21.1
2019-Mar-18 23:24 067 3 gusting 13 21.7
2019-Mar-18 23:19 045 6 gusting 13 21.7
2019-Mar-18 23:14 063 6 gusting 13 21.7
2019-Mar-18 23:09 049 6 gusting 13 21.7
2019-Mar-18 23:04 045 4 gusting 9 22.2
2019-Mar-18 22:59 029 3 gusting 7 22.2
2019-Mar-18 22:54 048 1 gusting 8 22.2
2019-Mar-18 22:49 044 2 gusting 8 22.2
2019-Mar-18 22:44 048 4 gusting 8 22.2
2019-Mar-18 22:39 060 1 gusting 10 22.2
2019-Mar-18 22:34 034 5 gusting 10 22.2
2019-Mar-18 22:29 057 3 gusting 8 22.2
2019-Mar-18 22:24 047 2 gusting 8 22.2
2019-Mar-18 22:19 022 3 gusting 8 22.2
2019-Mar-18 22:14 038 2 gusting 6 22.8
2019-Mar-18 22:09 005 4 gusting 8 22.8
2019-Mar-18 22:04 355 5 gusting 8 22.8
2019-Mar-18 21:59 019 4 gusting 8 22.8
2019-Mar-18 21:54 360 3 gusting 7 22.8
2019-Mar-18 21:49 020 3 gusting 7 22.8
2019-Mar-18 21:44 360 3 gusting 6 22.8
2019-Mar-18 21:39 059 4 gusting 6 22.8
2019-Mar-18 21:34 059 4 gusting 6 23.3
2019-Mar-18 21:29 053 4 gusting 6 23.3
2019-Mar-18 21:24 034 3 gusting 6 23.3
2019-Mar-18 21:19 066 3 gusting 9 23.3
2019-Mar-18 21:14 019 5 gusting 9 23.3
2019-Mar-18 21:09 030 4 gusting 7 23.3
2019-Mar-18 21:04 027 3 gusting 6 23.3
2019-Mar-18 20:59 360 3 gusting 7 23.3
2019-Mar-18 20:54 042 4 gusting 7 23.3
2019-Mar-18 20:49 025 2 gusting 6 23.3
2019-Mar-18 20:44 341 1 gusting 6 23.3
2019-Mar-18 20:39 037 2 gusting 7 23.3
2019-Mar-18 20:34 020 2 gusting 7 23.3
2019-Mar-18 20:29 040 3 gusting 6 23.3
2019-Mar-18 20:24 073 2 gusting 6 23.3
2019-Mar-18 20:19 057 3 gusting 7 23.3
2019-Mar-18 20:14 058 1 gusting 6 23.3
2019-Mar-18 20:09 055 3 gusting 6 23.3
2019-Mar-18 20:04 051 3 gusting 6 23.3
2019-Mar-18 19:59 009 3 gusting 6 23.3
2019-Mar-18 19:54 067 2 gusting 6 23.3
2019-Mar-18 19:49 043 4 gusting 6 23.3
2019-Mar-18 19:44 063 3 gusting 6 23.3
2019-Mar-18 19:39 045 2 gusting 6 23.3
2019-Mar-18 19:34 029 3 gusting 6 23.3
2019-Mar-18 19:29 033 3 gusting 6 23.3
2019-Mar-18 19:24 046 3 gusting 6 23.3
2019-Mar-18 19:19 075 4 gusting 6 23.9
2019-Mar-18 19:14 034 1 gusting 6 23.3
2019-Mar-18 19:09 015 2 gusting 6 23.3
2019-Mar-18 19:04 009 3 gusting 6 23.3
2019-Mar-18 18:59 349 2 gusting 6 23.3
2019-Mar-18 18:54 327 4 gusting 6 22.8
2019-Mar-18 18:49 014 1 gusting 6 23.3
2019-Mar-18 18:44 360 3 gusting 6 22.8
2019-Mar-18 18:39 360 3 gusting 6 22.8
2019-Mar-18 18:34 038 3 gusting 6 22.8
2019-Mar-18 18:29 055 3 gusting 6 22.2
2019-Mar-18 18:24 084 4 gusting 6 22.8
2019-Mar-18 18:19 078 2 gusting 6 22.8
2019-Mar-18 18:14 043 1 gusting 4 22.8
2019-Mar-18 18:09 011 2 gusting 5 22.2
2019-Mar-18 18:04 023 1 gusting 6 22.2
2019-Mar-18 17:59 086 1 gusting 4 22.2
2019-Mar-18 17:54 360 1 gusting 5 22.2
2019-Mar-18 17:49 065 0 gusting 6 22.2
2019-Mar-18 17:44 063 3 gusting 6 21.7
2019-Mar-18 17:39 065 3 gusting 6 21.7
2019-Mar-18 17:34 059 4 gusting 6 21.7
2019-Mar-18 17:29 040 4 gusting 6 22.2
2019-Mar-18 17:24 355 3 gusting 6 22.2
2019-Mar-18 17:19 057 2 gusting 6 22.2
2019-Mar-18 17:14 038 1 gusting 6 22.2
2019-Mar-18 17:09 071 1 gusting 5 22.2
2019-Mar-18 17:04 101 1 gusting 6 22.2
2019-Mar-18 16:59 070 2 gusting 7 21.7
2019-Mar-18 16:54 059 3 gusting 7 21.7
2019-Mar-18 16:49 355 2 gusting 6 22.8
2019-Mar-18 16:44 349 2 gusting 6 22.2
2019-Mar-18 16:39 005 3 gusting 6 22.2
2019-Mar-18 16:34 360 3 gusting 7 22.2
2019-Mar-18 16:29 322 4 gusting 7 22.2
2019-Mar-18 16:24 334 2 gusting 4 21.7
2019-Mar-18 16:19 069 0 gusting 6 21.1
2019-Mar-18 16:14 074 2 gusting 6 21.1
2019-Mar-18 16:09 013 2 gusting 5 21.7
2019-Mar-18 16:04 040 2 gusting 6 21.1
2019-Mar-18 15:59 047 1 gusting 6 21.1
2019-Mar-18 15:54 038 3 gusting 6 21.1
2019-Mar-18 15:49 106 2 gusting 6 20.6
2019-Mar-18 15:44 034 3 gusting 5 20.6
2019-Mar-18 15:39 058 2 gusting 4 20.6
2019-Mar-18 15:34 096 2 gusting 5 20.0
2019-Mar-18 15:29 036 2 gusting 4 19.4
2019-Mar-18 15:24 069 1 gusting 6 18.9
2019-Mar-18 15:19 075 2 gusting 6 18.9
2019-Mar-18 15:14 040 3 gusting 6 18.9
2019-Mar-18 15:09 068 3 gusting 6 18.9
2019-Mar-18 15:04 046 4 gusting 6 18.9
2019-Mar-18 14:59 038 2 gusting 8 18.3
2019-Mar-18 14:54 075 4 gusting 8 18.3
2019-Mar-18 14:49 058 3 gusting 6 18.3
2019-Mar-18 14:44 076 1 gusting 6 18.3
2019-Mar-18 14:39 040 4 gusting 6 18.3
2019-Mar-18 14:34 049 2 gusting 7 17.8
2019-Mar-18 14:29 043 5 gusting 7 17.8
2019-Mar-18 14:24 032 4 gusting 9 17.8
2019-Mar-18 14:19 046 5 gusting 9 17.8
2019-Mar-18 14:14 068 4 gusting 8 17.8
2019-Mar-18 14:09 032 3 gusting 7 17.8
2019-Mar-18 14:04 045 4 gusting 7 17.2
2019-Mar-18 13:59 034 3 gusting 10 17.2
2019-Mar-18 13:54 066 4 gusting 10 17.2
2019-Mar-18 13:49 036 3 gusting 7 17.2
2019-Mar-18 13:44 063 3 gusting 8 17.2
2019-Mar-18 13:39 030 3 gusting 8 17.2
2019-Mar-18 13:34 026 2 gusting 6 17.2
2019-Mar-18 13:29 033 2 gusting 5 17.2
2019-Mar-18 13:24 036 2 gusting 6 17.2
2019-Mar-18 13:19 025 1 gusting 4 17.2
2019-Mar-18 13:14 023 2 gusting 5 17.2
2019-Mar-18 13:09 027 2 gusting 5 17.2
2019-Mar-18 13:04 336 2 gusting 7 17.2
2019-Mar-18 12:59 051 3 gusting 7 17.8
2019-Mar-18 12:54 042 3 gusting 10 17.8
2019-Mar-18 12:49 081 2 gusting 10 17.8
2019-Mar-18 12:44 005 1 gusting 4 17.8
2019-Mar-18 12:39 027 2 gusting 4 17.2
2019-Mar-18 12:34 031 2 gusting 5 17.2
2019-Mar-18 12:29 032 2 gusting 5 17.2
2019-Mar-18 12:24 064 1 gusting 4 17.2
2019-Mar-18 12:19 078 2 gusting 5 17.2
2019-Mar-18 12:14 061 1 gusting 6 17.2
2019-Mar-18 12:09 065 3 gusting 6 17.2
2019-Mar-18 12:04 051 2 gusting 5 16.7
2019-Mar-18 11:59 055 2 gusting 4 16.7
2019-Mar-18 11:54 071 1 gusting 6 16.7
2019-Mar-18 11:49 061 2 gusting 6 16.7
2019-Mar-18 11:44 079 1 gusting 6 16.7
2019-Mar-18 11:39 080 2 gusting 4 16.7
2019-Mar-18 11:34 096 2 gusting 4 16.7
2019-Mar-18 11:29 098 0 gusting 2 16.7
2019-Mar-18 11:24 070 1 gusting 6 16.7
2019-Mar-18 11:19 079 3 gusting 6 16.7
2019-Mar-18 11:14 036 3 gusting 6 16.7
2019-Mar-18 11:09 038 4 gusting 7 17.2
2019-Mar-18 11:04 065 3 gusting 7 17.2
2019-Mar-18 10:59 048 3 gusting 8 17.2
2019-Mar-18 10:54 061 4 gusting 7 17.2
2019-Mar-18 10:49 055 2 gusting 7 17.2
2019-Mar-18 10:44 063 3 gusting 7 17.2
2019-Mar-18 10:39 064 2 gusting 6 17.2
2019-Mar-18 10:34 065 3 gusting 9 17.2
2019-Mar-18 10:29 076 4 gusting 7 17.8
2019-Mar-18 10:24 065 2 gusting 6 17.8
2019-Mar-18 10:19 029 3 gusting 6 17.8
2019-Mar-18 10:14 074 4 gusting 6 17.8
2019-Mar-18 10:09 038 2 gusting 6 17.8
2019-Mar-18 10:04 068 3 gusting 6 17.8
2019-Mar-18 09:59 036 2 gusting 5 17.8
2019-Mar-18 09:54 038 2 gusting 6 17.8
2019-Mar-18 09:49 082 1 gusting 6 17.8
2019-Mar-18 09:44 057 3 gusting 6 17.8
2019-Mar-18 09:39 063 4 gusting 6 17.8
2019-Mar-18 09:34 048 2 gusting 4 17.8
2019-Mar-18 09:29 083 1 gusting 6 17.8
2019-Mar-18 09:24 030 2 gusting 6 17.8
2019-Mar-18 09:19 036 1 gusting 5 17.8
2019-Mar-18 09:14 071 2 gusting 7 17.8
2019-Mar-18 09:09 062 1 gusting 6 17.8
2019-Mar-18 09:04 037 3 gusting 6 18.3
2019-Mar-18 08:59 039 4 gusting 7 18.3
2019-Mar-18 08:54 065 3 gusting 11 18.3
2019-Mar-18 08:49 083 5 gusting 11 18.3
2019-Mar-18 08:44 069 3 gusting 7 18.3
2019-Mar-18 08:39 038 2 gusting 5 18.3
2019-Mar-18 08:34 005 2 gusting 5 18.3
2019-Mar-18 08:29 032 2 gusting 5 18.3
2019-Mar-18 08:24 076 1 gusting 2 18.3
2019-Mar-18 08:19 087 1 gusting 3 18.3
2019-Mar-18 08:14 067 1 gusting 4 18.3
2019-Mar-18 08:09 086 2 gusting 4 18.3
2019-Mar-18 08:04 072 0 gusting 5 18.3
2019-Mar-18 07:59 073 2 gusting 5 18.3
2019-Mar-18 07:54 084 1 gusting 3 18.3
2019-Mar-18 07:49 084 1 gusting 3 18.3
2019-Mar-18 07:44 049 2 gusting 3 18.3
2019-Mar-18 07:39 079 2 gusting 5 18.3
2019-Mar-18 07:34 051 1 gusting 5 18.3
2019-Mar-18 07:29 051 2 gusting 4 18.9
2019-Mar-18 07:24 056 0 gusting 5 18.9
2019-Mar-18 07:19 069 1 gusting 5 18.9
2019-Mar-18 07:14 071 2 gusting 4 18.9
2019-Mar-18 07:09 074 2 gusting 6 18.9
2019-Mar-18 07:04 063 2 gusting 6 18.9
2019-Mar-18 06:59 017 2 gusting 5 18.9
2019-Mar-18 06:54 032 1 gusting 4 18.9
2019-Mar-18 06:49 073 2 gusting 4 18.9
2019-Mar-18 06:44 045 2 gusting 5 18.9
2019-Mar-18 06:39 045 1 gusting 4 18.9
2019-Mar-18 06:34 049 2 gusting 5 18.9
2019-Mar-18 06:29 076 2 gusting 5 19.4
2019-Mar-18 06:24 052 1 gusting 6 19.4
2019-Mar-18 06:19 059 2 gusting 6 19.4
2019-Mar-18 06:14 076 2 gusting 6 19.4
2019-Mar-18 06:09 071 2 gusting 6 19.4
2019-Mar-18 06:04 084 2 gusting 6 19.4
2019-Mar-18 05:59 080 1 gusting 6 19.4
2019-Mar-18 05:54 059 2 gusting 6 20.0
2019-Mar-18 05:49 057 3 gusting 6 20.0
2019-Mar-18 05:44 053 2 gusting 6 20.0
2019-Mar-18 05:39 058 2 gusting 6 20.0
2019-Mar-18 05:34 040 4 gusting 6 20.0
2019-Mar-18 05:29 084 1 gusting 6 20.0
2019-Mar-18 05:24 055 2 gusting 6 20.0
2019-Mar-18 05:19 037 2 gusting 6 20.0
2019-Mar-18 05:14 053 2 gusting 8 20.0
2019-Mar-18 05:09 074 2 gusting 8 20.0
2019-Mar-18 05:04 078 2 gusting 7 20.0
2019-Mar-18 04:59 053 2 gusting 7 20.6
2019-Mar-18 04:54 057 2 gusting 6 20.6
2019-Mar-18 04:49 075 2 gusting 6 20.6
2019-Mar-18 04:44 084 2 gusting 6 20.6
2019-Mar-18 04:39 081 3 gusting 6 20.6
2019-Mar-18 04:34 074 4 gusting 7 20.6
2019-Mar-18 04:29 053 2 gusting 6 20.6
2019-Mar-18 04:24 074 1 gusting 7 20.6
2019-Mar-18 04:19 065 4 gusting 7 20.6
2019-Mar-18 04:14 082 2 gusting 6 20.6
2019-Mar-18 04:09 071 2 gusting 6 20.6
2019-Mar-18 04:04 054 3 gusting 8 21.1
2019-Mar-18 03:59 077 3 gusting 8 21.1
2019-Mar-18 03:54 087 5 gusting 9 21.1
2019-Mar-18 03:49 067 6 gusting 8 21.1
2019-Mar-18 03:44 054 4 gusting 7 21.1
2019-Mar-18 03:39 061 2 gusting 6 21.1
2019-Mar-18 03:34 057 5 gusting 6 21.1
2019-Mar-18 03:29 067 3 gusting 7 21.1
2019-Mar-18 03:24 049 5 gusting 7 21.7
2019-Mar-18 03:19 063 2 gusting 7 21.7
2019-Mar-18 03:14 052 3 gusting 10 21.7
2019-Mar-18 03:09 046 4 gusting 10 21.7
2019-Mar-18 03:04 055 2 gusting 7 21.7
2019-Mar-18 02:59 032 3 gusting 7 22.2
2019-Mar-18 02:54 026 3 gusting 8 22.2
2019-Mar-18 02:49 053 4 gusting 8 22.2
2019-Mar-18 02:44 046 5 gusting 8 22.8
2019-Mar-18 02:39 024 3 gusting 6 22.8
2019-Mar-18 02:34 027 3 gusting 9 22.8
2019-Mar-18 02:29 028 6 gusting 9 22.8
2019-Mar-18 02:24 030 1 gusting 5 22.8
2019-Mar-18 02:19 048 1 gusting 5 22.8
2019-Mar-18 02:14 017 1 gusting 4 22.8
2019-Mar-18 02:09 355 0 gusting 5 22.8
2019-Mar-18 02:04 350 0 gusting 5 22.8
2019-Mar-18 01:59 327 2 gusting 6 22.8
2019-Mar-18 01:54 355 3 gusting 8 22.8
2019-Mar-18 01:49 014 4 gusting 8 22.8
2019-Mar-18 01:44 344 3 gusting 7 22.2
2019-Mar-18 01:39 335 4 gusting 7 22.2
2019-Mar-18 01:34 346 3 gusting 7 22.2
2019-Mar-18 01:29 317 1 gusting 4 22.2
2019-Mar-18 01:24 294 1 gusting 7 22.2
2019-Mar-18 01:19 300 3 gusting 7 22.2
2019-Mar-18 01:14 323 2 gusting 6 22.2
2019-Mar-18 01:09 313 2 gusting 6 22.2
2019-Mar-18 01:04 308 1 gusting 6 22.2
2019-Mar-18 00:59 311 3 gusting 6 22.2
2019-Mar-18 00:54 294 1 gusting 5 22.2
2019-Mar-18 00:49 323 2 gusting 7 22.2
2019-Mar-18 00:44 309 3 gusting 8 22.2
2019-Mar-18 00:39 309 3 gusting 8 22.2
2019-Mar-18 00:34 302 3 gusting 7 22.2
2019-Mar-18 00:29 315 2 gusting 6 22.2
2019-Mar-18 00:24 283 2 gusting 7 22.2
2019-Mar-18 00:19 296 3 gusting 7 22.2
2019-Mar-18 00:14 309 2 gusting 6 22.2
2019-Mar-18 00:09 325 2 gusting 6 22.2
2019-Mar-18 00:04 309 2 gusting 6 22.8
2019-Mar-17 23:59 325 2 gusting 6 22.8
2019-Mar-17 23:54 299 2 gusting 6 22.8
2019-Mar-17 23:49 331 2 gusting 7 22.8
2019-Mar-17 23:44 301 4 gusting 7 22.8
2019-Mar-17 23:39 316 3 gusting 7 22.8
2019-Mar-17 23:34 311 3 gusting 8 22.8
2019-Mar-17 23:29 290 4 gusting 8 22.8
2019-Mar-17 23:24 300 3 gusting 8 22.8
2019-Mar-17 23:19 291 3 gusting 10 22.8
2019-Mar-17 23:14 303 4 gusting 10 22.8
2019-Mar-17 23:09 301 5 gusting 10 23.3
2019-Mar-17 23:04 310 4 gusting 8 23.3
2019-Mar-17 22:59 302 3 gusting 6 23.3
2019-Mar-17 22:54 290 3 gusting 6 23.3
2019-Mar-17 22:49 275 3 gusting 6 23.3
2019-Mar-17 22:44 298 3 gusting 6 23.3
2019-Mar-17 22:39 291 2 gusting 5 23.3
2019-Mar-17 22:34 288 2 gusting 4 23.3
2019-Mar-17 22:29 290 2 gusting 4 23.9
2019-Mar-17 22:24 283 1 gusting 3 23.9
2019-Mar-17 22:19 257 1 gusting 4 23.9
2019-Mar-17 22:14 279 2 gusting 6 23.9
2019-Mar-17 22:09 293 1 gusting 6 23.9
2019-Mar-17 22:04 283 2 gusting 6 23.9
2019-Mar-17 21:59 296 1 gusting 6 23.9
2019-Mar-17 21:54 279 2 gusting 6 23.9
2019-Mar-17 21:49 277 2 gusting 6 23.9
2019-Mar-17 21:44 291 4 gusting 6 24.4
2019-Mar-17 21:39 280 3 gusting 6 24.4
2019-Mar-17 21:34 321 2 gusting 6 24.4
2019-Mar-17 21:29 282 3 gusting 7 24.4
2019-Mar-17 21:24 280 2 gusting 7 24.4
2019-Mar-17 21:19 287 4 gusting 7 24.4
2019-Mar-17 21:14 264 3 gusting 9 24.4
2019-Mar-17 21:09 286 6 gusting 9 25.0
2019-Mar-17 21:04 292 2 gusting 7 25.0
2019-Mar-17 20:59 253 4 gusting 7 25.0
2019-Mar-17 20:54 256 3 gusting 6 25.0
2019-Mar-17 20:49 280 3 gusting 6 25.0
2019-Mar-17 20:44 277 3 gusting 6 24.4
2019-Mar-17 20:39 271 4 gusting 7 25.0
2019-Mar-17 20:34 311 3 gusting 8 25.0
2019-Mar-17 20:29 275 5 gusting 8 25.6
2019-Mar-17 20:24 265 3 gusting 6 25.6
2019-Mar-17 20:19 283 2 gusting 5 25.6
2019-Mar-17 20:14 250 3 gusting 6 25.0
2019-Mar-17 20:09 267 4 gusting 6 25.0
2019-Mar-17 20:04 273 3 gusting 7 25.6
2019-Mar-17 19:59 280 5 gusting 9 25.6
2019-Mar-17 19:54 290 5 gusting 11 25.6
2019-Mar-17 19:49 306 6 gusting 11 26.1
2019-Mar-17 19:44 296 5 gusting 11 26.1
2019-Mar-17 19:39 246 6 gusting 13 26.1
2019-Mar-17 19:34 267 4 gusting 13 26.7
2019-Mar-17 19:29 292 4 gusting 10 26.7
2019-Mar-17 19:24 267 6 gusting 10 26.1
2019-Mar-17 19:19 253 5 gusting 10 26.1
2019-Mar-17 19:14 256 3 gusting 8 26.1
2019-Mar-17 19:09 252 3 gusting 8 26.1
2019-Mar-17 19:04 248 5 gusting 8 26.1
2019-Mar-17 18:59 252 4 gusting 9 26.7
2019-Mar-17 18:54 244 4 gusting 9 27.2
2019-Mar-17 18:49 317 3 gusting 5 27.2
2019-Mar-17 18:44 221 1 gusting 6 26.7
2019-Mar-17 18:39 275 2 gusting 8 26.7
2019-Mar-17 18:34 315 3 gusting 6 27.2
2019-Mar-17 18:29 329 2 gusting 5 26.7
2019-Mar-17 18:24 269 2 gusting 5 27.2
2019-Mar-17 18:19 286 2 gusting 5 27.2
2019-Mar-17 18:14 266 0 gusting 4 26.7
2019-Mar-17 18:09 263 2 gusting 4 26.7
2019-Mar-17 18:04 258 0 gusting 5 27.2
2019-Mar-17 17:59 273 2 gusting 6 27.2
2019-Mar-17 17:54 317 3 gusting 6 27.2
2019-Mar-17 17:49 068 2 gusting 4 26.7
2019-Mar-17 17:44 296 1 gusting 6 26.7
2019-Mar-17 17:39 284 3 gusting 6 26.7
2019-Mar-17 17:34 315 0 gusting 4 26.7
2019-Mar-17 17:29 315 2 gusting 4 26.1
2019-Mar-17 17:24 291 0 gusting 3 26.1
2019-Mar-17 17:19 269 0 gusting 4 26.1
2019-Mar-17 17:14 249 1 gusting 4 25.6
2019-Mar-17 17:09 279 0 gusting 3 25.6
2019-Mar-17 17:04 217 0 gusting 3 25.6
2019-Mar-17 16:59 242 1 gusting 4 24.4
2019-Mar-17 16:54 244 2 gusting 4 25.0
2019-Mar-17 16:49 180 1 gusting 2 25.0
2019-Mar-17 16:44 287 25.0
2019-Mar-17 16:39 289 1 gusting 2 25.0
2019-Mar-17 16:34 338 0 gusting 4 25.6
2019-Mar-17 16:29 336 2 gusting 4 25.6
2019-Mar-17 16:24 345 2 gusting 4 26.1
2019-Mar-17 16:19 028 0 gusting 4 25.6
2019-Mar-17 16:14 325 2 gusting 5 25.6
2019-Mar-17 16:09 042 2 gusting 6 25.6
2019-Mar-17 16:04 327 1 gusting 6 25.6
2019-Mar-17 15:59 302 1 gusting 5 25.6
2019-Mar-17 15:54 355 3 gusting 5 25.6
2019-Mar-17 15:49 355 2 gusting 5 25.6
2019-Mar-17 15:44 302 2 gusting 6 25.6
2019-Mar-17 15:39 315 2 gusting 6 25.0
2019-Mar-17 15:34 331 1 gusting 4 25.0
2019-Mar-17 15:29 054 0 gusting 3 25.0
2019-Mar-17 15:24 130 1 gusting 3 23.9
2019-Mar-17 15:19 122 1 gusting 3 23.9
2019-Mar-17 15:14 136 0 gusting 3 23.9
2019-Mar-17 15:09 125 1 gusting 3 23.9
2019-Mar-17 15:04 078 1 gusting 4 23.3
2019-Mar-17 14:59 065 3 gusting 4 23.3
2019-Mar-17 14:54 151 1 gusting 6 22.8
2019-Mar-17 14:49 132 1 gusting 6 22.2
2019-Mar-17 14:44 079 2 gusting 4 22.2
2019-Mar-17 14:39 105 0 gusting 4 22.2
2019-Mar-17 14:34 059 3 gusting 4 22.2
2019-Mar-17 14:29 071 2 gusting 5 21.7
2019-Mar-17 14:24 045 2 gusting 5 21.7
2019-Mar-17 14:19 044 1 gusting 4 21.7
2019-Mar-17 14:14 011 1 gusting 4 21.7
2019-Mar-17 14:09 079 1 gusting 5 21.7
2019-Mar-17 14:04 053 2 gusting 5 21.1
2019-Mar-17 13:59 046 2 gusting 4 20.6
2019-Mar-17 13:54 049 0 gusting 4 20.6
2019-Mar-17 13:49 033 1 gusting 4 20.0
2019-Mar-17 13:44 048 0 gusting 4 20.0
2019-Mar-17 13:39 021 0 gusting 4 20.0
2019-Mar-17 13:34 060 2 gusting 5 20.0
2019-Mar-17 13:29 055 2 gusting 6 20.0
2019-Mar-17 13:24 067 2 gusting 5 20.0
2019-Mar-17 13:19 044 3 gusting 5 20.0
2019-Mar-17 13:14 071 1 gusting 5 20.0
2019-Mar-17 13:09 067 2 gusting 6 20.0
2019-Mar-17 13:04 057 2 gusting 6 19.4
2019-Mar-17 12:59 063 2 gusting 7 20.0
2019-Mar-17 12:54 360 2 gusting 7 20.0
2019-Mar-17 12:49 041 3 gusting 6 20.0
2019-Mar-17 12:44 048 2 gusting 7 20.0
2019-Mar-17 12:39 042 3 gusting 7 20.6
2019-Mar-17 12:34 046 1 gusting 6 20.6
2019-Mar-17 12:29 056 2 gusting 6 20.6
2019-Mar-17 12:24 040 2 gusting 6 20.6
2019-Mar-17 12:19 076 2 gusting 5 20.6
2019-Mar-17 12:14 063 1 gusting 4 20.6
2019-Mar-17 12:09 059 2 gusting 6 20.6
2019-Mar-17 12:04 061 2 gusting 5 20.6
2019-Mar-17 11:59 067 1 gusting 4 20.6
2019-Mar-17 11:54 076 1 gusting 4 20.6
2019-Mar-17 11:49 049 2 gusting 5 20.6
2019-Mar-17 11:44 100 1 gusting 5 20.6
2019-Mar-17 11:39 086 1 gusting 4 21.1
2019-Mar-17 11:34 092 2 gusting 4 20.6
2019-Mar-17 11:29 071 2 gusting 5 20.6
2019-Mar-17 11:24 082 1 gusting 5 21.1
2019-Mar-17 11:19 068 2 gusting 6 21.1
2019-Mar-17 11:14 084 3 gusting 6 21.1
2019-Mar-17 11:09 067 1 gusting 3 21.1
2019-Mar-17 11:04 065 0 gusting 2 21.1
2019-Mar-17 10:59 067 0 gusting 4 21.1
2019-Mar-17 10:54 067 1 gusting 4 21.1
2019-Mar-17 10:49 064 1 gusting 4 21.1
2019-Mar-17 10:44 092 1 gusting 6 21.1
2019-Mar-17 10:39 055 2 gusting 4 21.1
2019-Mar-17 10:34 068 2 gusting 4 21.1
2019-Mar-17 10:29 080 0 gusting 3 21.1
2019-Mar-17 10:24 068 1 gusting 3 21.1
2019-Mar-17 10:19 074 1 gusting 4 21.1
2019-Mar-17 10:14 086 1 gusting 6 21.1
2019-Mar-17 10:09 071 2 gusting 6 21.1
2019-Mar-17 10:04 076 1 gusting 3 21.1
2019-Mar-17 09:59 046 1 gusting 3 21.1
2019-Mar-17 09:54 066 1 gusting 4 21.1
2019-Mar-17 09:49 082 2 gusting 4 21.1
2019-Mar-17 09:44 077 2 gusting 4 21.1
2019-Mar-17 09:39 088 2 gusting 4 21.1
2019-Mar-17 09:34 082 1 gusting 3 21.1
2019-Mar-17 09:29 067 2 gusting 4 21.1
2019-Mar-17 09:24 073 2 gusting 4 21.1
2019-Mar-17 09:19 080 1 gusting 3 21.1
2019-Mar-17 09:14 105 1 gusting 3 21.1
2019-Mar-17 09:09 093 0 gusting 4 21.1
2019-Mar-17 09:04 095 1 gusting 4 21.1
2019-Mar-17 08:59 090 2 gusting 4 21.1
2019-Mar-17 08:54 092 1 gusting 4 21.1
2019-Mar-17 08:49 094 1 gusting 4 21.1
2019-Mar-17 08:44 099 1 gusting 4 21.1
2019-Mar-17 08:39 088 0 gusting 4 21.1
2019-Mar-17 08:34 086 1 gusting 4 21.1
2019-Mar-17 08:29 089 1 gusting 3 21.1
2019-Mar-17 08:24 118 0 gusting 4 21.1
2019-Mar-17 08:19 094 1 gusting 3 21.1
2019-Mar-17 08:14 107 0 gusting 3 21.1
2019-Mar-17 08:09 137 0 gusting 4 21.1
2019-Mar-17 08:04 126 1 gusting 5 21.1
2019-Mar-17 07:59 106 2 gusting 5 21.1
2019-Mar-17 07:54 130 1 gusting 2 21.1
2019-Mar-17 07:49 134 0 gusting 2 21.1
2019-Mar-17 07:44 156 1 gusting 5 21.1
2019-Mar-17 07:39 105 1 gusting 5 21.1
2019-Mar-17 07:34 095 1 gusting 6 21.1
2019-Mar-17 07:29 086 2 gusting 5 21.1
2019-Mar-17 07:24 080 2 gusting 4 21.1
2019-Mar-17 07:19 103 1 gusting 4 21.1
2019-Mar-17 07:14 117 0 gusting 4 21.1
2019-Mar-17 07:09 113 0 gusting 4 21.1
2019-Mar-17 07:04 104 1 gusting 5 21.7
2019-Mar-17 06:59 119 2 gusting 5 21.7
2019-Mar-17 06:54 086 0 gusting 5 21.7
2019-Mar-17 06:49 098 2 gusting 5 21.7
2019-Mar-17 06:44 092 0 gusting 6 21.7
2019-Mar-17 06:39 109 2 gusting 6 21.7
2019-Mar-17 06:34 078 0 gusting 5 21.7
2019-Mar-17 06:29 073 0 gusting 3 21.7
2019-Mar-17 06:24 083 1 gusting 3 21.7
2019-Mar-17 06:19 068 1 gusting 3 21.7
2019-Mar-17 06:14 102 21.7
2019-Mar-17 06:09 102 21.7
2019-Mar-17 06:04 094 21.7
2019-Mar-17 05:59 088 0 gusting 2 21.7
2019-Mar-17 05:54 092 0 gusting 4 21.7
2019-Mar-17 05:49 136 1 gusting 4 21.7
2019-Mar-17 05:44 148 0 gusting 3 22.2
2019-Mar-17 05:39 104 1 gusting 3 22.2
2019-Mar-17 05:34 123 1 gusting 4 22.2
2019-Mar-17 05:29 095 1 gusting 4 22.2
2019-Mar-17 05:24 088 0 gusting 2 22.2
2019-Mar-17 05:19 103 0 gusting 2 22.2
2019-Mar-17 05:14 103 1 gusting 4 22.2
2019-Mar-17 05:09 096 1 gusting 4 22.2
2019-Mar-17 05:04 090 22.2
2019-Mar-17 04:59 090 1 gusting 4 22.2
2019-Mar-17 04:54 090 0 gusting 4 22.2
2019-Mar-17 04:49 099 0 gusting 2 22.2
2019-Mar-17 04:44 114 0 gusting 1 22.2
2019-Mar-17 04:39 113 0 gusting 2 22.2
2019-Mar-17 04:34 109 22.2
2019-Mar-17 04:29 113 0 gusting 4 22.2
2019-Mar-17 04:24 126 1 gusting 4 22.2
2019-Mar-17 04:19 083 1 gusting 2 22.2
2019-Mar-17 04:14 096 22.2
2019-Mar-17 04:09 049 22.2
2019-Mar-17 04:04 042 0 gusting 1 22.2
2019-Mar-17 03:59 042 22.2
2019-Mar-17 03:54 042 22.2
2019-Mar-17 03:49 043 22.2
2019-Mar-17 03:44 043 22.2
2019-Mar-17 03:39 043 22.2
2019-Mar-17 03:34 043 22.2
2019-Mar-17 03:29 043 22.2
2019-Mar-17 03:24 043 0 gusting 1 22.2
2019-Mar-17 03:19 042 0 gusting 1 22.2
2019-Mar-17 03:14 043 21.7
2019-Mar-17 03:09 032 0 gusting 1 21.7
2019-Mar-17 03:04 311 21.7
2019-Mar-17 02:59 311 21.7
2019-Mar-17 02:54 311 21.7
2019-Mar-17 02:49 311 22.2
2019-Mar-17 02:44 311 22.2
2019-Mar-17 02:39 311 22.2
2019-Mar-17 02:34 311 22.2
2019-Mar-17 02:29 311 22.2
2019-Mar-17 02:24 311 22.2
2019-Mar-17 02:19 311 22.2
2019-Mar-17 02:14 311 22.8
2019-Mar-17 02:09 311 22.8
2019-Mar-17 02:04 311 22.8
2019-Mar-17 01:59 311 22.8
2019-Mar-17 01:54 311 22.8
2019-Mar-17 01:49 311 22.8
2019-Mar-17 01:44 311 22.8
2019-Mar-17 01:39 311 22.8
2019-Mar-17 01:34 311 22.8
2019-Mar-17 01:29 311 23.3
2019-Mar-17 01:24 311 0 gusting 0 23.3
2019-Mar-17 01:19 311 23.3
2019-Mar-17 01:14 311 0 gusting 1 23.3
2019-Mar-17 01:09 311 23.3
2019-Mar-17 01:04 311 23.3